Time,TemperatureF,DewpointF,PressureIn,WindDirection,WindDirectionDegrees,WindSpeedMPH,WindSpeedGustMPH,Humidity,HourlyPrecipIn,Conditions,Clouds,dailyrainin,SoftwareType,DateUTC
2013-10-12 00:04:00,67.6,63.9,29.92,East,81,0.0,0.0,88,0.00,,,0.00,Wunderground v.1.15,2013-10-12 04:04:00,
2013-10-12 00:14:00,67.5,63.5,29.92,East,80,0.0,0.0,87,0.00,,,0.00,Wunderground v.1.15,2013-10-12 04:14:00,
2013-10-12 00:29:00,67.3,63.6,29.92,NE,46,2.0,2.0,88,0.00,,,0.00,Wunderground v.1.15,2013-10-12 04:29:00,
2013-10-12 00:39:00,67.1,63.4,29.92,ENE,64,1.0,1.0,88,0.00,,,0.00,Wunderground v.1.15,2013-10-12 04:39:00,
2013-10-12 00:44:00,67.1,63.4,29.92,ENE,59,1.0,1.0,88,0.00,,,0.00,Wunderground v.1.15,2013-10-12 04:44:00,
2013-10-12 00:54:00,66.9,63.2,29.92,ENE,63,1.0,1.0,88,0.00,,,0.00,Wunderground v.1.15,2013-10-12 04:54:00,
2013-10-12 00:59:00,66.9,63.2,29.92,ENE,63,1.0,1.0,88,0.00,,,0.00,Wunderground v.1.15,2013-10-12 04:59:00,
2013-10-12 01:09:00,66.8,63.5,29.92,NE,52,2.0,2.0,89,0.00,,,0.00,Wunderground v.1.15,2013-10-12 05:09:00,
2013-10-12 01:19:00,66.6,63.3,29.92,NE,51,2.0,2.0,89,0.00,,,0.00,Wunderground v.1.15,2013-10-12 05:19:00,
2013-10-12 01:34:00,66.3,63.0,29.92,East,89,1.0,2.0,89,0.00,,,0.00,Wunderground v.1.15,2013-10-12 05:34:00,
2013-10-12 01:49:00,66.1,62.8,29.92,East,89,1.0,1.0,89,0.00,,,0.00,Wunderground v.1.15,2013-10-12 05:49:00,
2013-10-12 01:59:00,65.8,62.8,29.92,East,89,0.0,1.0,90,0.00,,,0.00,Wunderground v.1.15,2013-10-12 05:59:00,
2013-10-12 02:14:00,65.5,62.8,29.91,East,80,1.0,1.0,91,0.00,,,0.00,Wunderground v.1.15,2013-10-12 06:14:00,
2013-10-12 02:29:00,65.4,62.7,29.91,NE,49,1.0,1.0,91,0.00,,,0.00,Wunderground v.1.15,2013-10-12 06:29:00,
2013-10-12 02:44:00,65.4,62.7,29.91,NE,49,1.0,1.0,91,0.00,,,0.00,Wunderground v.1.15,2013-10-12 06:44:00,
2013-10-12 02:54:00,65.4,62.7,29.91,NE,49,0.0,0.0,91,0.00,,,0.00,Wunderground v.1.15,2013-10-12 06:54:00,
2013-10-12 03:04:00,65.4,62.7,29.91,NE,49,0.0,0.0,91,0.00,,,0.00,Wunderground v.1.15,2013-10-12 07:04:00,
2013-10-12 03:14:00,65.3,62.6,29.90,NE,49,0.0,1.0,91,0.00,,,0.00,Wunderground v.1.15,2013-10-12 07:14:00,
2013-10-12 03:24:00,65.2,62.8,29.90,NE,49,1.0,2.0,92,0.00,,,0.00,Wunderground v.1.15,2013-10-12 07:24:00,
2013-10-12 03:39:00,65.0,62.6,29.90,NE,49,0.0,0.0,92,0.00,,,0.00,Wunderground v.1.15,2013-10-12 07:39:00,
2013-10-12 03:54:00,64.9,62.5,29.91,NE,49,0.0,0.0,92,0.00,,,0.00,Wunderground v.1.15,2013-10-12 07:54:00,
2013-10-12 04:09:00,65.0,62.6,29.91,NE,49,0.0,0.0,92,0.00,,,0.00,Wunderground v.1.15,2013-10-12 08:09:00,
2013-10-12 04:19:00,64.9,62.5,29.91,NE,49,0.0,0.0,92,0.00,,,0.00,Wunderground v.1.15,2013-10-12 08:19:00,
2013-10-12 04:34:00,64.9,62.5,29.90,NE,49,0.0,0.0,92,0.00,,,0.00,Wunderground v.1.15,2013-10-12 08:34:00,
2013-10-12 04:44:00,65.0,62.6,29.90,NE,49,0.0,0.0,92,0.00,,,0.00,Wunderground v.1.15,2013-10-12 08:44:00,
2013-10-12 04:59:00,65.0,62.6,29.91,NE,49,0.0,0.0,92,0.00,,,0.00,Wunderground v.1.15,2013-10-12 08:59:00,
2013-10-12 05:08:00,65.0,62.6,29.91,NE,49,0.0,0.0,92,0.00,,,0.00,Wunderground v.1.15,2013-10-12 09:08:00,
2013-10-12 05:19:00,64.9,62.5,29.91,NE,49,0.0,0.0,92,0.00,,,0.00,Wunderground v.1.15,2013-10-12 09:19:00,
2013-10-12 05:29:00,64.9,62.5,29.92,NE,49,0.0,0.0,92,0.00,,,0.00,Wunderground v.1.15,2013-10-12 09:29:00,
2013-10-12 05:44:00,64.9,62.5,29.93,NE,49,0.0,0.0,92,0.00,,,0.00,Wunderground v.1.15,2013-10-12 09:44:00,
2013-10-12 05:54:00,65.0,62.6,29.93,NE,49,0.0,0.0,92,0.00,,,0.00,Wunderground v.1.15,2013-10-12 09:54:00,
2013-10-12 06:04:00,65.0,62.6,29.94,NE,49,0.0,1.0,92,0.00,,,0.00,Wunderground v.1.15,2013-10-12 10:04:00,
2013-10-12 06:14:00,65.1,62.7,29.94,NE,49,1.0,1.0,92,0.00,,,0.00,Wunderground v.1.15,2013-10-12 10:14:00,
2013-10-12 06:29:00,65.1,62.7,29.94,NE,49,1.0,1.0,92,0.00,,,0.00,Wunderground v.1.15,2013-10-12 10:29:00,
2013-10-12 06:39:00,65.1,62.7,29.94,NE,49,0.0,0.0,92,0.00,,,0.00,Wunderground v.1.15,2013-10-12 10:39:00,
2013-10-12 06:54:00,65.1,62.7,29.95,NE,49,1.0,1.0,92,0.00,,,0.00,Wunderground v.1.15,2013-10-12 10:54:00,
2013-10-12 07:09:00,65.1,62.7,29.95,NE,49,0.0,0.0,92,0.00,,,0.00,Wunderground v.1.15,2013-10-12 11:09:00,
2013-10-12 07:19:00,65.0,62.6,29.95,NE,49,0.0,0.0,92,0.00,,,0.00,Wunderground v.1.15,2013-10-12 11:19:00,
2013-10-12 07:34:00,65.1,62.7,29.96,NE,40,0.0,1.0,92,0.00,,,0.00,Wunderground v.1.15,2013-10-12 11:34:00,
2013-10-12 07:49:00,65.0,62.6,29.97,NE,35,0.0,0.0,92,0.00,,,0.00,Wunderground v.1.15,2013-10-12 11:49:00,
2013-10-12 07:59:00,65.1,63.0,29.97,NNW,340,0.0,0.0,93,0.00,,,0.00,Wunderground v.1.15,2013-10-12 11:59:00,
2013-10-12 08:08:00,65.2,63.1,29.97,NNW,340,0.0,1.0,93,0.00,,,0.00,Wunderground v.1.15,2013-10-12 12:08:00,
2013-10-12 08:19:00,65.4,63.0,29.97,WNW,296,1.0,1.0,92,0.00,,,0.00,Wunderground v.1.15,2013-10-12 12:19:00,
2013-10-12 08:29:00,65.6,63.2,29.98,WNW,302,1.0,2.0,92,0.00,,,0.00,Wunderground v.1.15,2013-10-12 12:29:00,
2013-10-12 08:44:00,65.7,63.0,29.98,North,349,2.0,2.0,91,0.00,,,0.00,Wunderground v.1.15,2013-10-12 12:44:00,
2013-10-12 08:54:00,66.4,63.4,29.98,NNW,340,1.0,2.0,90,0.00,,,0.00,Wunderground v.1.15,2013-10-12 12:54:00,
2013-10-12 09:04:00,67.1,63.4,29.99,North,9,2.0,2.0,88,0.00,,,0.00,Wunderground v.1.15,2013-10-12 13:04:00,
2013-10-12 09:14:00,67.8,63.8,29.99,North,11,3.0,3.0,87,0.00,,,0.00,Wunderground v.1.15,2013-10-12 13:14:00,
2013-10-12 09:29:00,68.4,64.0,29.99,North,9,4.0,4.0,86,0.00,,,0.00,Wunderground v.1.15,2013-10-12 13:29:00,
2013-10-12 09:39:00,69.1,64.4,29.99,North,10,2.0,2.0,85,0.00,,,0.00,Wunderground v.1.15,2013-10-12 13:39:00,
2013-10-12 09:54:00,68.8,63.8,29.99,NE,42,2.0,2.0,84,0.00,,,0.00,Wunderground v.1.15,2013-10-12 13:54:00,
2013-10-12 10:09:00,68.8,63.1,29.99,NNW,342,3.0,4.0,82,0.00,,,0.00,Wunderground v.1.15,2013-10-12 14:09:00,
2013-10-12 10:24:00,70.2,63.7,29.99,WNW,297,3.0,5.0,80,0.00,,,0.00,Wunderground v.1.15,2013-10-12 14:24:00,
2013-10-12 10:34:00,70.9,63.7,29.99,NNW,342,3.0,3.0,78,0.00,,,0.00,Wunderground v.1.15,2013-10-12 14:34:00,
2013-10-12 10:49:00,71.9,63.9,29.98,North,355,4.0,4.0,76,0.00,,,0.00,Wunderground v.1.15,2013-10-12 14:49:00,
2013-10-12 11:04:00,72.1,63.0,29.99,NNE,25,4.0,5.0,73,0.00,,,0.00,Wunderground v.1.15,2013-10-12 15:04:00,
2013-10-12 11:19:00,72.8,63.6,29.98,WNW,299,4.0,4.0,73,0.00,,,0.00,Wunderground v.1.15,2013-10-12 15:19:00,
2013-10-12 11:29:00,73.5,63.5,29.98,NW,323,4.0,4.0,71,0.00,,,0.00,Wunderground v.1.15,2013-10-12 15:29:00,
2013-10-12 11:44:00,73.9,63.5,29.98,North,5,3.0,3.0,70,0.00,,,0.00,Wunderground v.1.15,2013-10-12 15:44:00,
2013-10-12 11:59:00,74.3,63.5,29.98,WNW,290,4.0,4.0,69,0.00,,,0.00,Wunderground v.1.15,2013-10-12 15:59:00,
2013-10-12 12:14:00,75.3,64.4,29.98,NE,41,3.0,4.0,69,0.00,,,0.00,Wunderground v.1.15,2013-10-12 16:14:00,
2013-10-12 12:24:00,75.5,64.2,29.97,NNW,333,3.0,3.0,68,0.00,,,0.00,Wunderground v.1.15,2013-10-12 16:24:00,
2013-10-12 12:39:00,76.2,64.0,29.97,North,9,4.0,7.0,66,0.00,,,0.00,Wunderground v.1.15,2013-10-12 16:39:00,
2013-10-12 12:54:00,76.2,64.0,29.96,NW,309,4.0,4.0,66,0.00,,,0.00,Wunderground v.1.15,2013-10-12 16:54:00,
2013-10-12 13:09:00,77.3,64.6,29.95,NNW,346,4.0,4.0,65,0.00,,,0.00,Wunderground v.1.15,2013-10-12 17:09:00,
2013-10-12 13:19:00,77.1,63.1,29.95,NE,51,4.0,4.0,62,0.00,,,0.00,Wunderground v.1.15,2013-10-12 17:19:00,
2013-10-12 13:34:00,77.5,63.5,29.95,North,360,4.0,5.0,62,0.00,,,0.00,Wunderground v.1.15,2013-10-12 17:34:00,
2013-10-12 13:49:00,77.3,63.7,29.94,NNE,29,4.0,4.0,63,0.00,,,0.00,Wunderground v.1.15,2013-10-12 17:49:00,
2013-10-12 14:04:00,77.6,64.0,29.94,NW,310,4.0,7.0,63,0.00,,,0.00,Wunderground v.1.15,2013-10-12 18:04:00,
2013-10-12 14:19:00,78.2,63.6,29.94,North,351,5.0,5.0,61,0.00,,,0.00,Wunderground v.1.15,2013-10-12 18:19:00,
2013-10-12 14:29:00,78.3,63.7,29.94,NNW,340,4.0,4.0,61,0.00,,,0.00,Wunderground v.1.15,2013-10-12 18:29:00,
2013-10-12 14:44:00,78.8,63.7,29.94,NNW,340,5.0,5.0,60,0.00,,,0.00,Wunderground v.1.15,2013-10-12 18:44:00,
2013-10-12 14:59:00,78.0,63.5,29.94,NNW,340,4.0,4.0,61,0.00,,,0.00,Wunderground v.1.15,2013-10-12 18:59:00,
2013-10-12 15:14:00,78.5,63.5,29.94,NNW,347,4.0,4.0,60,0.00,,,0.00,Wunderground v.1.15,2013-10-12 19:14:00,
2013-10-12 15:24:00,78.0,63.0,29.94,NNE,16,5.0,5.0,60,0.00,,,0.00,Wunderground v.1.15,2013-10-12 19:24:00,
2013-10-12 15:39:00,77.8,63.3,29.94,NNW,337,4.0,4.0,61,0.00,,,0.00,Wunderground v.1.15,2013-10-12 19:39:00,
2013-10-12 15:54:00,78.4,63.4,29.94,NNE,17,4.0,4.0,60,0.00,,,0.00,Wunderground v.1.15,2013-10-12 19:54:00,
2013-10-12 16:09:00,78.2,63.6,29.94,North,355,3.0,3.0,61,0.00,,,0.00,Wunderground v.1.15,2013-10-12 20:09:00,
2013-10-12 16:19:00,78.2,63.2,29.94,NNW,333,4.0,4.0,60,0.00,,,0.00,Wunderground v.1.15,2013-10-12 20:19:00,
2013-10-12 16:34:00,78.3,63.7,29.94,North,350,3.0,3.0,61,0.00,,,0.00,Wunderground v.1.15,2013-10-12 20:34:00,
2013-10-12 16:49:00,78.5,63.5,29.94,North,355,4.0,4.0,60,0.00,,,0.00,Wunderground v.1.15,2013-10-12 20:49:00,
2013-10-12 16:59:00,78.2,63.6,29.94,NNE,24,3.0,3.0,61,0.00,,,0.00,Wunderground v.1.15,2013-10-12 20:59:00,
2013-10-12 17:14:00,78.0,63.5,29.94,NNE,32,3.0,5.0,61,0.00,,,0.00,Wunderground v.1.15,2013-10-12 21:14:00,
2013-10-12 17:29:00,77.8,62.8,29.94,North,5,3.0,4.0,60,0.00,,,0.00,Wunderground v.1.15,2013-10-12 21:29:00,
2013-10-12 17:44:00,77.5,63.0,29.95,North,5,3.0,3.0,61,0.00,,,0.00,Wunderground v.1.15,2013-10-12 21:44:00,
2013-10-12 17:54:00,77.3,63.3,29.96,NNW,335,2.0,2.0,62,0.00,,,0.00,Wunderground v.1.15,2013-10-12 21:54:00,
2013-10-12 18:03:00,76.9,62.9,29.96,NNW,348,1.0,2.0,62,0.00,,,0.00,Wunderground v.1.15,2013-10-12 22:03:00,
2013-10-12 18:09:00,76.6,63.1,29.96,North,351,2.0,2.0,63,0.00,,,0.00,Wunderground v.1.15,2013-10-12 22:09:00,
2013-10-12 18:24:00,75.8,63.2,29.96,North,355,1.0,1.0,65,0.00,,,0.00,Wunderground v.1.15,2013-10-12 22:24:00,
2013-10-12 18:39:00,74.8,63.5,29.97,North,355,0.0,0.0,68,0.00,,,0.00,Wunderground v.1.15,2013-10-12 22:39:00,
2013-10-12 18:54:00,73.3,64.1,29.97,NE,48,2.0,2.0,73,0.00,,,0.00,Wunderground v.1.15,2013-10-12 22:54:00,
2013-10-12 19:04:00,72.0,64.0,29.98,NE,48,1.0,2.0,76,0.00,,,0.00,Wunderground v.1.15,2013-10-12 23:04:00,
2013-10-12 19:19:00,71.1,63.5,29.98,NE,48,1.0,1.0,77,0.00,,,0.00,Wunderground v.1.15,2013-10-12 23:19:00,
2013-10-12 19:34:00,70.2,63.4,29.98,NE,48,0.0,0.0,79,0.00,,,0.00,Wunderground v.1.15,2013-10-12 23:34:00,
2013-10-12 19:49:00,69.4,63.3,29.99,NE,48,0.0,0.0,81,0.00,,,0.00,Wunderground v.1.15,2013-10-12 23:49:00,
2013-10-12 19:59:00,69.0,63.3,29.99,NE,48,0.0,0.0,82,0.00,,,0.00,Wunderground v.1.15,2013-10-12 23:59:00,
2013-10-12 20:14:00,68.7,63.3,30.00,NE,48,0.0,0.0,83,0.00,,,0.00,Wunderground v.1.15,2013-10-13 00:14:00,
2013-10-12 20:29:00,68.4,63.4,30.00,ENE,68,1.0,3.0,84,0.00,,,0.00,Wunderground v.1.15,2013-10-13 00:29:00,
2013-10-12 20:39:00,68.3,63.6,30.00,East,85,1.0,2.0,85,0.00,,,0.00,Wunderground v.1.15,2013-10-13 00:39:00,
2013-10-12 20:54:00,67.7,63.4,30.01,East,85,1.0,2.0,86,0.00,,,0.00,Wunderground v.1.15,2013-10-13 00:54:00,
2013-10-12 21:09:00,67.1,63.1,30.01,ENE,67,1.0,1.0,87,0.00,,,0.00,Wunderground v.1.15,2013-10-13 01:09:00,
2013-10-12 21:24:00,66.8,63.1,30.01,ENE,67,0.0,1.0,88,0.00,,,0.00,Wunderground v.1.15,2013-10-13 01:24:00,
2013-10-12 21:34:00,66.6,62.9,30.01,ENE,67,0.0,0.0,88,0.00,,,0.00,Wunderground v.1.15,2013-10-13 01:34:00,
2013-10-12 21:49:00,66.4,63.1,30.02,ENE,67,0.0,0.0,89,0.00,,,0.00,Wunderground v.1.15,2013-10-13 01:49:00,
2013-10-12 22:04:00,66.2,62.9,30.02,ENE,67,0.0,0.0,89,0.00,,,0.00,Wunderground v.1.15,2013-10-13 02:04:00,
2013-10-12 22:09:00,66.1,62.8,30.01,ENE,67,0.0,0.0,89,0.00,,,0.00,Wunderground v.1.15,2013-10-13 02:09:00,
2013-10-12 22:19:00,65.7,62.7,30.01,ENE,67,0.0,0.0,90,0.00,,,0.00,Wunderground v.1.15,2013-10-13 02:19:00,
2013-10-12 22:29:00,65.5,62.8,30.01,ENE,67,0.0,0.0,91,0.00,,,0.00,Wunderground v.1.15,2013-10-13 02:29:00,
2013-10-12 22:44:00,65.4,62.7,30.02,ENE,67,0.0,0.0,91,0.00,,,0.00,Wunderground v.1.15,2013-10-13 02:44:00,
2013-10-12 22:59:00,65.1,62.4,30.02,ENE,67,0.0,0.0,91,0.00,,,0.00,Wunderground v.1.15,2013-10-13 02:59:00,
2013-10-12 23:09:00,64.9,62.2,30.02,ENE,67,0.0,0.0,91,0.00,,,0.00,Wunderground v.1.15,2013-10-13 03:09:00,
2013-10-12 23:24:00,64.7,62.3,30.02,ENE,67,0.0,0.0,92,0.00,,,0.00,Wunderground v.1.15,2013-10-13 03:24:00,
2013-10-12 23:39:00,64.1,61.7,30.02,ENE,67,0.0,0.0,92,0.00,,,0.00,Wunderground v.1.15,2013-10-13 03:39:00,
2013-10-12 23:49:00,63.8,61.7,30.02,ENE,67,0.0,0.0,93,0.00,,,0.00,Wunderground v.1.15,2013-10-13 03:49:00,